TimeEDT,TemperatureF,Dew PointF,Humidity,Sea Level PressureIn,VisibilityMPH,Wind Direction,Wind SpeedMPH,Gust SpeedMPH,PrecipitationIn,Events,Conditions,WindDirDegrees,DateUTC
12:00 AM,60.8,60.8,100,30.20,5.0,NNE,4.6,-,N/A,,Drizzle,20,2013-10-13 04:00:00
12:18 AM,60.8,60.8,100,30.19,5.0,NNE,6.9,-,N/A,,Mostly Cloudy,20,2013-10-13 04:18:00
12:39 AM,60.8,60.8,100,30.19,7.0,NNE,5.8,-,N/A,,Overcast,30,2013-10-13 04:39:00
1:00 AM,60.8,60.8,100,30.19,10.0,NNE,4.6,-,N/A,,Overcast,30,2013-10-13 05:00:00
1:18 AM,60.8,60.8,100,30.19,10.0,NNE,4.6,-,N/A,,Overcast,20,2013-10-13 05:18:00
1:39 AM,60.8,60.8,100,30.20,10.0,NNE,4.6,-,N/A,,Overcast,30,2013-10-13 05:39:00
2:00 AM,60.8,60.8,100,30.20,10.0,NNE,6.9,-,N/A,,Overcast,20,2013-10-13 06:00:00
2:18 AM,60.8,60.8,100,30.20,10.0,NNE,6.9,-,N/A,,Overcast,30,2013-10-13 06:18:00
2:39 AM,60.8,60.8,100,30.20,5.0,NNE,4.6,-,N/A,Rain,Light Rain,30,2013-10-13 06:39:00
3:00 AM,60.8,60.8,100,30.20,10.0,NE,5.8,-,N/A,,Light Drizzle,40,2013-10-13 07:00:00
3:18 AM,60.8,60.8,100,30.20,10.0,NE,4.6,-,N/A,,Overcast,40,2013-10-13 07:18:00
3:39 AM,60.8,60.8,100,30.19,10.0,NE,5.8,-,N/A,,Overcast,40,2013-10-13 07:39:00
4:00 AM,60.8,59.0,94,30.20,10.0,NNE,4.6,-,N/A,,Mostly Cloudy,30,2013-10-13 08:00:00
4:18 AM,60.8,59.0,94,30.20,10.0,NNE,5.8,-,N/A,,Mostly Cloudy,20,2013-10-13 08:18:00
4:39 AM,60.8,59.0,94,30.21,10.0,NE,3.5,-,N/A,,Mostly Cloudy,40,2013-10-13 08:39:00
5:00 AM,60.8,59.0,94,30.21,10.0,NNE,4.6,-,N/A,,Mostly Cloudy,20,2013-10-13 09:00:00
5:18 AM,60.8,57.2,88,30.22,10.0,NNE,4.6,-,N/A,,Scattered Clouds,30,2013-10-13 09:18:00
5:27 AM,60.8,57.2,88,30.22,10.0,NNE,6.9,-,N/A,,Scattered Clouds,30,2013-10-13 09:27:00
5:55 AM,62.6,57.2,82,30.23,10.0,NE,4.6,-,N/A,,Overcast,40,2013-10-13 09:55:00
6:45 AM,62.6,57.2,82,30.24,10.0,NE,6.9,-,N/A,,Overcast,40,2013-10-13 10:45:00
7:50 AM,60.8,57.2,88,30.27,10.0,NNE,11.5,-,N/A,,Overcast,30,2013-10-13 11:50:00
8:50 AM,60.8,57.2,88,30.29,10.0,NE,9.2,-,N/A,,Overcast,40,2013-10-13 12:50:00
9:50 AM,60.8,57.2,88,30.31,10.0,NNE,10.4,-,N/A,,Overcast,30,2013-10-13 13:50:00
10:45 AM,62.6,57.2,82,30.32,10.0,NNE,9.2,-,N/A,,Overcast,20,2013-10-13 14:45:00
11:55 AM,64.4,57.2,77,30.32,7.0,NNE,12.7,-,N/A,,Overcast,30,2013-10-13 15:55:00
12:45 PM,64.4,55.4,73,30.32,10.0,NE,6.9,-,N/A,,Mostly Cloudy,50,2013-10-13 16:45:00
1:55 PM,66.2,57.2,73,30.30,10.0,NE,3.5,-,N/A,,Mostly Cloudy,40,2013-10-13 17:55:00
2:55 PM,66.2,57.2,73,30.29,10.0,ENE,4.6,-,N/A,,Mostly Cloudy,70,2013-10-13 18:55:00
4:45 PM,68.0,57.2,68,30.30,10.0,Calm,Calm,-,N/A,,Overcast,0,2013-10-13 20:45:00
5:45 PM,66.2,57.2,73,30.30,10.0,Calm,Calm,-,N/A,,Mostly Cloudy,0,2013-10-13 21:45:00
6:45 PM,64.4,57.2,77,30.31,10.0,Calm,Calm,-,N/A,,Mostly Cloudy,0,2013-10-13 22:45:00
7:45 PM,62.6,57.2,82,30.32,10.0,Calm,Calm,-,N/A,,Scattered Clouds,0,2013-10-13 23:45:00
8:45 PM,62.6,55.4,77,30.39,10.0,Calm,Calm,-,N/A,,Scattered Clouds,0,2013-10-14 00:45:00
10:21 PM,59.0,53.6,82,30.36,10.0,ENE,6.9,-,N/A,,Clear,60,2013-10-14 02:21:00
10:42 PM,59.0,53.6,82,30.36,10.0,ENE,9.2,-,N/A,,Scattered Clouds,60,2013-10-14 02:42:00
11:03 PM,59.0,53.6,82,30.36,10.0,ENE,6.9,-,N/A,,Scattered Clouds,60,2013-10-14 03:03:00
11:21 PM,59.0,53.6,82,30.36,10.0,NE,5.8,-,N/A,,Scattered Clouds,40,2013-10-14 03:21:00
11:42 PM,59.0,53.6,82,30.35,10.0,NNE,3.5,-,N/A,,Clear,30,2013-10-14 03:42:00